User: anonymous
Location: Oshawa
(43.9000°N, 78.8670°W)
Time: 12:19:23
(UTC-04:00)
Language:

Iridium 54 - Orbit

View from above orbital plane
View from above orbital plane
View from above satellite
View from above satellite

Ground track
Ground track

The orbit data is extracted from the following two-line orbital elements,

1 25171U 98010C   14204.16454203  .00000150  00000-0  46594-4 0  8403
2 25171 086.3940 073.4802 0002177 099.1066 261.0376 14.34216361859996
Epoch (UTC): 23 July 2014 03:56:56
Eccentricity: 0.0002177
inclination: 86.3940°
perigee height: 776 km
apogee height: 779 km
right ascension of ascending node: 73.4802°
argument of perigee: 99.1066°
revolutions per day: 14.34216361
mean anomaly at epoch: 261.0376°
orbit number at epoch: 85999

The dashed part of the orbit path shows where the satellite is in the earth's shadow,  

DLR